Total_Precipitation_Accumulation
1.33 1.19 1.91 1.85 1.63 1.44 1.35 1.32 1.36 1.45 1.51 1.49 1.36 1.14 1.03 0.99 1.04 1.12 1.22 1.14 1.07 1.08 1.06 1.05 1.03 0.99 0.88 0.77 0.82 0.98 1.12 1.18 1.17 1.22 1.33 1.40 1.47 1.51 1.74 1.97 2.01 2.01 1.91
0.99 1.09 1.78 1.73 1.53 1.38 1.32 1.34 1.34 1.31 1.31 1.34 1.36 1.19 1.09 0.99 1.06 1.17 1.19 1.11 1.03 1.03 1.00 0.96 1.02 0.99 0.89 0.86 0.96 1.13 1.17 1.20 1.19 1.31 1.57 1.58 1.57 1.63 1.70 1.81 1.93 2.02 1.93
0.91 0.98 1.39 1.67 1.56 1.44 1.35 1.32 1.30 1.26 1.25 1.26 1.27 1.26 1.15 1.07 1.11 1.21 1.17 1.06 1.04 0.99 0.96 0.93 0.94 0.94 0.93 0.97 1.12 1.20 1.13 1.22 1.39 1.53 1.84 2.09 1.75 1.63 1.59 1.73 1.72 1.76 1.81
0.81 0.92 1.30 1.76 1.67 1.55 1.51 1.50 1.49 1.35 1.22 1.18 1.12 1.08 1.06 1.04 1.04 1.11 1.18 1.07 1.08 1.01 0.93 0.89 0.87 0.92 0.95 1.02 1.16 1.15 1.14 1.29 1.53 1.64 1.77 1.97 1.93 1.79 1.79 1.86 1.84 1.73 1.80
0.83 0.92 1.43 1.89 1.71 1.59 1.56 1.63 1.56 1.40 1.25 1.14 1.06 1.03 1.00 1.06 1.10 1.13 1.05 1.01 1.06 1.06 0.98 1.02 1.01 1.04 1.06 1.15 1.16 1.17 1.29 1.45 1.58 1.46 1.57 1.78 2.26 2.16 1.87 1.98 2.04 1.88 1.78
0.72 0.81 1.27 1.81 1.67 1.50 1.42 1.55 1.49 1.34 1.32 1.21 1.15 1.12 1.10 1.20 1.37 1.26 1.11 1.09 1.08 1.11 1.04 1.07 1.11 1.15 1.19 1.23 1.26 1.31 1.43 1.54 1.41 1.48 1.60 1.75 2.12 2.17 1.82 1.88 1.93 1.88 1.77
0.72 0.75 1.04 1.54 1.52 1.37 1.32 1.39 1.39 1.36 1.36 1.21 1.16 1.17 1.19 1.25 1.42 1.52 1.38 1.28 1.25 1.22 1.15 1.12 1.12 1.11 1.17 1.27 1.29 1.38 1.52 1.46 1.28 1.56 1.59 1.82 1.96 2.01 1.71 1.70 1.75 1.81 1.94
0.82 0.72 0.87 1.31 1.38 1.30 1.32 1.33 1.31 1.27 1.22 1.07 1.06 1.15 1.17 1.19 1.33 1.49 1.48 1.42 1.37 1.29 1.28 1.25 1.24 1.20 1.21 1.21 1.35 1.46 1.52 1.29 0.96 1.25 1.52 1.82 2.18 2.10 1.67 1.60 1.69 1.82 2.03
1.19 1.00 0.94 1.03 1.08 1.16 1.27 1.30 1.40 1.42 1.23 1.05 0.99 1.01 1.04 1.06 1.16 1.27 1.35 1.34 1.30 1.31 1.32 1.29 1.29 1.29 1.32 1.27 1.29 1.37 1.36 1.21 1.05 1.19 1.19 1.77 2.24 2.10 1.80 1.65 1.62 1.75 1.95
1.23 1.17 1.07 1.09 1.05 1.02 1.10 1.32 1.56 1.65 1.44 1.17 1.04 0.97 1.02 1.01 1.03 1.17 1.22 1.33 1.37 1.37 1.42 1.43 1.40 1.33 1.40 1.40 1.39 1.35 1.27 1.05 0.92 1.01 1.25 1.72 2.27 2.16 1.92 1.68 1.52 1.44 1.65
1.14 1.16 1.08 1.08 1.12 1.19 1.21 1.31 1.57 1.70 1.63 1.24 1.03 1.00 0.91 0.79 0.92 1.03 1.03 1.34 1.48 1.57 1.58 1.58 1.50 1.40 1.36 1.36 1.43 1.41 1.09 0.88 0.89 1.03 1.33 1.96 2.46 2.43 2.02 1.71 1.53 1.40 1.40
0.97 0.99 1.00 0.98 0.96 0.98 1.02 1.36 1.60 1.44 1.50 1.20 1.13 1.05 0.97 1.01 1.06 0.93 0.92 1.24 1.46 1.60 1.60 1.54 1.50 1.39 1.21 1.03 1.06 1.08 0.86 0.72 0.78 0.94 1.42 2.19 2.68 2.68 2.23 1.80 1.52 1.38 1.37
0.86 0.77 0.75 0.78 0.73 0.75 0.85 1.02 1.31 1.53 1.55 1.48 1.40 1.29 1.25 1.16 1.00 0.90 0.92 1.00 1.16 1.27 1.21 1.30 1.30 1.20 1.09 1.01 1.00 0.90 0.81 0.70 0.80 0.94 1.52 2.19 2.65 2.75 2.42 1.90 1.55 1.49 1.57
0.92 0.90 0.73 0.64 0.64 0.62 0.67 0.81 1.05 1.24 1.35 1.33 1.24 1.14 1.33 1.27 1.07 0.97 1.07 1.13 1.17 1.24 1.41 1.46 1.41 1.29 1.16 1.03 1.01 0.92 0.87 0.84 0.84 0.95 1.49 1.89 2.34 2.55 2.56 2.25 1.87 1.64 1.60
0.94 0.97 0.85 0.65 0.57 0.60 0.62 0.67 0.75 0.96 1.07 1.06 1.19 1.14 1.19 1.19 1.08 0.99 1.01 1.20 1.22 1.27 1.49 1.61 1.45 1.35 1.34 1.26 1.18 1.13 1.08 1.01 1.00 1.00 1.30 1.62 1.95 2.38 2.72 2.67 2.32 1.88 1.76
0.84 0.88 0.82 0.71 0.67 0.64 0.60 0.56 0.58 0.63 0.79 0.81 0.82 0.80 0.99 1.13 1.11 1.13 1.04 1.14 1.31 1.37 1.43 1.49 1.44 1.36 1.32 1.33 1.29 1.30 1.28 1.08 1.10 1.12 1.22 1.31 1.50 1.81 2.43 2.80 2.54 2.11 1.97
0.70 0.74 0.77 0.77 0.76 0.73 0.70 0.68 0.63 0.64 0.68 0.75 0.82 0.82 0.92 1.04 1.12 1.12 1.02 1.07 1.24 1.45 1.43 1.41 1.38 1.41 1.27 1.20 1.31 1.38 1.37 1.26 1.26 1.30 1.26 1.26 1.19 1.40 1.92 2.52 2.62 2.38 2.26
0.54 0.56 0.64 0.65 0.69 0.72 0.74 0.76 0.71 0.74 0.76 0.73 0.80 0.79 0.80 0.95 1.11 1.19 1.13 1.09 1.25 1.47 1.64 1.69 1.58 1.52 1.39 1.31 1.38 1.38 1.34 1.43 1.39 1.35 1.31 1.32 1.33 1.25 1.39 1.68 2.02 2.36 2.45
0.42 0.41 0.46 0.51 0.57 0.63 0.70 0.76 0.75 0.78 0.91 0.98 0.88 0.76 0.80 0.93 1.05 1.25 1.36 1.30 1.32 1.50 1.59 1.60 1.63 1.52 1.50 1.44 1.35 1.31 1.28 1.41 1.49 1.32 1.28 1.30 1.42 1.39 1.29 1.14 1.27 1.57 1.99
0.37 0.35 0.37 0.45 0.47 0.49 0.58 0.74 0.83 0.79 0.88 1.09 1.13 1.12 1.16 1.22 1.26 1.41 1.52 1.52 1.52 1.59 1.58 1.72 1.91 1.72 1.53 1.53 1.42 1.30 1.26 1.32 1.40 1.42 1.45 1.41 1.45 1.42 1.35 1.20 1.15 0.99 1.23
0.34 0.30 0.34 0.40 0.43 0.43 0.50 0.61 0.71 0.80 0.98 1.19 1.24 1.32 1.46 1.47 1.49 1.62 1.73 1.77 1.70 1.62 1.70 1.88 2.25 2.12 1.75 1.59 1.63 1.49 1.33 1.32 1.40 1.38 1.51 1.60 1.51 1.44 1.48 1.40 1.24 1.08 0.94
0.29 0.27 0.29 0.38 0.47 0.51 0.54 0.68 0.83 1.05 1.16 1.32 1.48 1.47 1.50 1.55 1.59 1.67 1.87 1.99 1.92 1.91 2.00 2.05 2.31 2.46 2.16 1.97 2.00 2.17 1.92 1.71 1.38 1.14 1.24 1.37 1.43 1.46 1.43 1.46 1.35 1.21 1.14
0.27 0.30 0.31 0.42 0.63 0.81 0.89 1.10 1.39 1.64 1.71 1.64 1.65 1.70 1.69 1.71 1.78 1.75 1.86 2.05 2.04 2.02 2.06 2.25 2.57 2.88 2.78 2.50 2.31 2.48 2.23 1.96 1.84 1.34 1.10 1.16 1.30 1.42 1.44 1.51 1.47 1.34 1.29
0.30 0.40 0.55 0.75 1.04 1.27 1.40 1.57 1.79 1.90 1.93 1.86 1.88 1.88 1.86 1.76 1.69 1.69 1.82 2.01 2.16 2.27 2.35 2.41 2.42 2.78 3.04 2.85 2.69 2.37 2.06 1.93 2.08 1.91 1.44 1.15 1.20 1.26 1.33 1.34 1.42 1.47 1.42
0.56 0.75 1.05 1.29 1.49 1.63 1.68 1.75 1.93 2.07 2.23 2.26 2.15 2.01 1.90 1.86 1.79 1.70 1.74 1.82 1.87 1.97 2.11 2.24 2.31 2.55 2.73 2.87 2.83 2.62 2.34 2.19 1.80 1.82 1.88 1.61 1.31 1.09 1.11 1.22 1.40 1.45 1.43
0.99 1.17 1.37 1.49 1.62 1.61 1.61 1.65 1.76 1.94 2.11 2.14 2.17 2.14 2.01 1.88 1.77 1.66 1.61 1.70 1.72 1.73 1.88 2.00 2.10 2.36 2.53 2.66 2.72 2.61 2.50 2.45 2.19 1.95 1.78 1.75 1.58 1.26 1.08 1.07 1.18 1.30 1.35